CAPE
701 534 747 731 770 686 708 811 889 854 889 698 700 615 774 860 749 737 770 1055 790 796 725 804 752 632 712 768 784 868 831 922 886 1227 2034 2172 1892 2195 2202 2294 1884 1475 1249 1061 880 1052 957 745 804 1330 1341 1317 1433 1496 1696 1553 1852 1666 1568 1023 1333 1800 1620 1504 1135 949 880 1399 1347 1394 1268 1166 1018 1955 1961 1488 1494 1691 1610 1486 1977 2160 2184 3045 2418
805 628 596 665 810 583 677 728 746 819 793 932 846 451 493 737 807 727 365 687 779 666 553 434 480 737 515 726 846 814 804 803 708 742 822 1039 1546 1577 1342 1350 1538 1974 1242 1081 872 867 929 909 884 895 946 1184 1220 1628 1355 1470 1886 1744 1488 1175 1044 1408 2121 1584 1180 965 882 1120 1831 1332 1114 2057 1321 1156 1737 1506 2116 1688 1412 1908 1647 1682 1408 1840 2953
272 550 641 503 377 383 556 662 520 572 602 763 807 738 326 482 664 732 705 542 400 417 436 604 836 958 862 877 925 717 726 684 651 663 782 908 1032 772 679 1560 2011 1861 1628 1502 1124 671 693 830 928 845 889 875 1089 1378 1436 1399 1354 1378 1256 1330 1152 1204 1176 1417 1277 1577 1391 1438 1531 1111 1015 1809 1074 1632 1508 1502 1909 2276 2256 1590 1698 1112 1184 1015 1928
478 488 560 244 135 137 92 316 632 544 532 521 691 722 689 628 512 491 598 596 620 590 712 768 833 832 805 611 524 570 659 692 632 544 572 648 673 642 523 873 1117 905 846 699 1045 950 961 856 777 626 978 1059 919 907 1254 1193 1088 1007 1108 1124 1317 1319 1060 1092 1784 1016 955 972 1435 1328 2355 2226 2445 2577 1862 1351 1442 1229 959 1371 1280 1740 1797 1035 1432
240 272 428 384 370 397 425 488 554 539 451 477 590 635 678 497 477 314 455 380 619 692 684 699 598 590 418 215 220 340 472 531 567 472 544 478 662 638 680 893 922 1089 820 896 1286 1273 826 769 622 611 929 1062 710 688 1032 1107 906 1161 1007 922 871 1260 1303 1168 1157 1094 890 872 1037 1544 1073 1482 1912 1962 1346 1047 939 1293 1569 1330 1115 1276 1832 1742 1495
236 194 73 138 432 341 459 479 401 443 473 428 551 518 523 509 472 325 449 638 683 564 535 546 460 324 274 190 146 179 435 491 537 663 592 389 499 756 751 600 406 351 486 353 527 1291 1316 831 647 611 940 1363 1176 1146 1123 895 899 949 831 662 639 851 1008 1175 1372 1546 1174 828 1096 1112 843 885 683 1503 2039 912 748 1235 1612 1851 2084 2037 1622 1483 1436
618 547 98 85 254 308 281 317 392 325 267 386 514 495 390 352 422 420 582 612 588 418 436 457 439 152 291 182 253 342 469 570 627 539 662 789 814 584 448 457 314 171 247 326 545 581 1481 1282 934 1016 1298 1267 787 728 1002 1183 833 479 482 634 819 808 992 974 843 928 1156 1048 1024 896 1035 1226 724 1795 1453 1354 1111 679 949 1258 1388 1697 1258 1543 1643
426 435 427 241 341 133 354 244 271 448 536 662 638 484 403 382 408 445 482 520 408 279 378 223 204 323 343 412 473 531 446 390 355 977 747 636 624 476 513 395 275 212 244 239 262 527 746 1245 1591 1477 1463 1208 1053 1171 1209 961 968 894 643 453 565 1106 1479 1496 1224 772 660 1112 1087 1041 944 1108 1796 1605 1522 1767 1353 1368 1476 1290 1207 1419 1309 1497 2524
550 271 402 431 384 269 410 240 253 388 536 594 591 520 466 422 446 450 478 516 385 416 433 289 168 305 276 419 502 468 400 172 722 634 745 514 553 477 374 301 207 151 171 149 252 355 634 748 887 1638 1764 1620 1517 1412 1339 1174 1241 1243 868 788 1097 1108 1224 1443 1293 1113 939 932 1162 1327 1609 1831 1581 1656 2003 1295 1031 915 1537 1586 1365 1346 1573 1670 1993
661 582 546 442 458 410 516 456 423 376 411 395 458 542 485 473 362 335 410 446 398 436 465 429 353 239 244 248 304 289 220 115 554 951 578 564 471 324 165 204 189 144 182 205 208 213 270 360 596 440 900 1451 1828 1829 1529 1275 1116 953 1098 1101 1234 1330 1361 1229 1156 1118 1039 964 1023 1293 1663 1547 1352 1380 1439 1503 1630 1755 1788 1488 1200 1451 1017 1056 1218
662 426 622 529 613 574 404 338 352 398 374 341 377 440 516 467 451 422 412 389 497 472 378 453 445 342 239 206 171 176 189 182 397 645 657 367 366 279 164 116 74 70 45 67 69 91 96 237 367 430 692 1624 2303 1740 1104 1508 1178 974 767 822 1111 1218 1210 1264 1221 1326 1283 1227 1261 1267 1316 1294 1345 1411 1295 1280 1512 1406 1175 1352 1326 1172 1368 1440 1251
577 587 425 424 376 329 198 179 214 236 257 300 324 373 426 408 430 445 381 379 424 452 469 461 457 436 381 466 378 205 174 383 75 88 119 59 98 175 99 75 42 16 8 16 36 62 137 277 376 396 578 1021 1487 1033 834 1110 1239 1212 1012 920 818 781 870 1223 1290 1257 1275 1092 1165 1222 1327 1346 1309 1274 1242 1468 1605 1117 1298 1221 1007 880 1162 1358 1300
433 356 217 186 143 95 65 29 101 129 165 216 274 322 356 366 375 336 341 357 402 461 417 360 402 467 455 528 410 279 124 33 22 10 0 0 1 122 74 73 96 89 87 97 127 207 358 429 443 426 426 659 1114 1035 1089 747 941 950 1038 1164 1135 922 691 652 659 914 1127 920 1246 1222 1262 1351 1238 1256 1280 1219 1948 1078 981 1421 1268 1313 778 681 892
144 114 42 60 19 9 25 48 81 119 159 183 227 219 218 221 178 184 254 311 337 325 265 306 284 430 415 365 396 343 108 2 0 0 0 0 0 92 191 158 131 121 189 187 166 232 376 546 538 468 407 578 622 607 312 436 508 392 456 636 879 1293 1151 926 770 555 635 676 921 996 1212 1442 1306 1326 1613 1342 1094 1053 884 905 1016 901 1082 1070 1350
41 3 2 10 15 10 15 30 66 78 113 122 160 168 215 220 186 200 163 168 216 263 280 240 197 143 191 205 204 181 0 0 0 0 0 0 0 118 132 92 112 128 122 147 192 233 300 387 531 507 567 565 599 450 362 414 617 465 543 816 1135 1311 1495 1054 1036 941 943 775 669 854 976 1123 1317 1466 1684 1333 1046 988 904 794 708 645 756 778 1068
5 2 3 9 11 17 21 36 60 57 67 124 124 131 148 162 192 124 99 152 92 192 249 228 160 129 64 43 36 43 0 0 0 0 0 0 0 0 0 28 68 42 36 24 41 86 217 411 584 597 608 622 624 392 415 315 305 623 898 962 1052 1193 1106 1263 1168 849 906 1011 971 943 992 1080 1077 1274 1447 1298 1652 1032 961 860 705 809 784 714 804
0 3 6 4 12 24 37 54 77 66 88 106 87 94 128 157 219 162 117 93 66 108 147 154 163 143 149 152 61 15 1 0 0 0 0 0 0 0 0 1 2 0 0 0 0 19 77 230 426 537 534 612 426 172 247 340 425 463 591 831 902 784 1016 899 626 614 732 776 713 698 693 711 984 1047 1009 1000 842 1014 1011 822 863 835 786 742 712
1 0 9 5 19 55 63 94 78 98 111 137 107 131 154 183 232 189 183 181 168 160 176 89 124 148 100 70 105 39 8 4 1 0 0 0 0 0 0 1 2 1 0 0 0 1 26 116 169 437 223 214 129 138 132 118 202 326 415 301 532 765 721 732 750 717 679 669 570 590 655 656 696 820 998 954 870 827 815 901 698 593 695 747 892
8 5 12 14 24 75 69 141 173 157 185 195 123 126 196 204 273 268 266 206 220 206 89 124 83 78 126 68 85 69 29 1 0 2 3 2 0 0 0 1 1 1 0 0 0 0 0 20 87 483 263 183 138 107 120 111 91 91 238 319 501 616 494 667 706 714 893 776 724 742 889 942 879 756 747 808 828 790 715 758 825 839 775 718 856
21 18 19 28 40 61 38 114 148 155 170 167 126 185 193 236 252 232 271 102 70 38 68 8 14 1 7 29 36 54 77 18 0 0 0 0 0 2 1 2 4 2 2 3 2 0 0 2 43 489 199 115 3 0 0 0 0 1 60 98 192 453 548 399 543 821 878 858 905 968 972 1062 1220 1265 1083 1192 1003 900 932 857 829 801 748 874 877
19 20 25 27 35 39 52 113 60 79 146 134 140 155 220 214 260 129 164 152 93 40 25 5 2 4 2 3 7 8 12 15 22 0 0 0 0 1 2 4 4 3 4 5 3 3 3 4 4 70 55 42 0 0 0 0 0 0 2 51 160 221 14 34 221 572 520 628 814 897 921 1009 1105 1201 1258 1376 1443 1379 1095 998 1050 895 825 791 882
21 22 26 27 35 31 54 89 25 33 40 112 112 99 176 167 64 85 146 57 2 4 5 7 8 9 9 9 12 9 7 8 14 3 0 0 0 0 4 4 5 4 5 3 3 4 7 7 10 43 1 0 0 0 0 0 0 0 4 0 0 0 0 42 133 220 378 475 578 733 842 905 981 1057 1126 1323 1522 1672 1481 1135 1122 1052 957 874 744
21 24 22 37 32 33 51 38 33 22 30 48 62 64 85 63 50 68 33 8 8 9 12 13 10 10 11 11 14 13 8 10 8 3 0 0 0 0 1 0 0 5 3 3 2 3 9 15 10 4 0 0 0 0 0 0 0 0 0 0 0 69 69 46 79 245 328 396 488 634 811 868 891 942 1006 1054 1219 1502 1829 1711 1183 913 964 1149 1127
26 14 21 32 28 37 46 34 37 25 47 51 48 42 39 28 45 36 24 8 9 7 10 10 14 12 10 7 9 9 10 12 9 5 3 4 0 0 0 0 0 0 3 2 4 8 9 4 2 0 0 1 4 12 3 0 70 0 0 0 0 0 0 109 124 140 269 364 539 690 832 924 976 1005 1087 1164 1169 1516 1306 1182 1383 1156 915 916 917
10 8 25 36 24 42 30 31 38 42 45 48 52 28 16 33 38 25 7 4 6 4 5 9 12 9 5 4 4 4 6 7 7 5 4 4 1 0 0 0 0 0 0 1 8 5 0 0 4 8 19 45 74 41 105 140 0 24 102 33 131 21 123 264 417 500 497 527 624 783 895 751 676 719 632 713 802 619 630 721 538 592 567 637 632
13 18 28 21 26 40 10 26 44 48 46 41 56 41 27 32 40 14 0 0 3 3 4 7 7 5 4 3 4 3 4 8 7 6 2 1 0 0 0 0 0 0 0 2 0 0 0 4 5 0 15 39 64 49 35 10 34 32 0 27 78 101 147 239 249 278 304 308 320 367 231 227 258 376 558 756 498 481 510 535 642 644 708 643 615
16 15 28 5 25 9 4 19 62 52 35 17 27 29 36 36 25 18 2 4 2 8 1 5 2 2 5 4 4 3 2 2 4 1 0 0 0 0 0 0 0 0 0 0 0 1 10 17 0 1 18 49 60 94 96 3 77 154 174 48 12 9 21 15 11 20 21 42 194 270 327 350 406 612 640 732 698 699 585 437 513 578 631 673 520
4 9 3 9 16 0 0 1 42 36 58 48 18 29 40 18 22 29 14 5 10 4 3 2 0 0 0 1 0 1 1 1 1 0 0 0 0 1 0 0 0 0 0 0 1 5 10 5 0 0 12 46 84 100 103 6 7 7 175 209 238 220 236 180 87 3 6 12 13 134 277 323 304 305 320 374 435 514 658 521 457 487 569 460 480
14 9 5 19 4 0 1 7 24 21 35 27 20 94 51 33 38 44 18 17 6 8 6 1 0 0 0 0 0 0 0 0 0 0 0 0 0 1 0 0 0 0 0 0 2 8 3 4 1 2 1 3 3 2 2 5 3 3 184 186 160 149 119 22 137 167 21 28 224 223 22 28 160 184 277 405 459 444 412 502 570 536 535 419 415
7 10 11 9 0 0 8 15 24 33 13 21 12 25 54 43 166 43 61 11 0 0 0 2 0 0 0 0 0 0 0 0 0 0 0 0 0 0 0 0 0 0 1 0 23 4 4 2 4 4 10 22 11 14 33 14 2 3 2 74 73 52 52 69 102 150 96 9 9 6 12 8 6 9 62 128 157 216 377 436 448 403 308 263 248
8 1 6 0 0 0 6 15 25 33 12 7 20 25 19 81 41 19 17 12 3 0 0 0 0 0 0 0 0 0 0 0 0 0 0 0 0 0 0 0 0 0 0 8 11 4 4 4 5 4 4 5 12 28 5 8 8 20 10 3 4 4 5 3 2 5 5 2 28 28 49 44 5 4 6 6 6 5 82 375 484 503 382 345 304
8 11 11 0 2 14 23 34 17 20 16 19 27 29 23 23 63 42 31 18 16 5 0 4 0 0 0 0 0 0 0 0 0 0 0 0 0 0 0 0 1 0 0 5 9 6 5 4 5 4 5 4 7 25 41 60 62 49 40 23 4 2 3 4 2 6 5 2 2 3 2 2 3 3 3 4 4 4 6 19 194 359 365 412 417
3 14 1 0 1 7 14 38 34 22 12 16 20 23 15 8 12 12 72 24 18 22 6 13 4 0 0 0 0 0 0 0 0 0 0 0 0 0 0 0 0 0 0 9 12 6 6 5 6 5 4 6 8 16 20 26 50 77 49 44 47 34 8 6 2 11 7 2 0 1 2 2 3 3 2 2 3 3 5 8 9 98 291 329 289
0 6 0 0 0 7 28 32 40 22 33 30 19 22 15 11 13 20 16 18 56 50 31 20 11 0 0 0 0 0 0 0 0 0 0 0 0 0 0 1 0 0 1 11 12 8 6 5 7 6 5 6 4 4 2 4 4 11 38 50 42 28 21 10 5 2 1 2 1 0 0 1 2 2 2 2 2 3 4 6 5 8 13 33 122
2 4 0 0 0 5 19 14 15 6 37 21 29 9 7 14 14 13 14 12 22 27 8 24 14 0 0 0 0 0 0 0 0 0 0 0 0 0 3 10 3 2 3 8 6 6 7 6 3 5 5 5 6 5 3 2 3 24 53 55 19 2 2 2 4 3 1 1 1 2 2 2 1 2 3 2 3 4 5 5 4 6 8 12 13
4 2 0 0 0 1 8 8 39 8 27 26 18 2 6 0 6 9 10 10 17 18 1 26 36 1 0 0 0 0 0 0 0 0 0 0 0 0 10 0 1 3 3 7 7 8 7 6 4 3 4 5 4 3 4 2 2 1 2 1 16 11 14 6 3 2 0 0 0 1 2 2 1 1 0 0 2 4 4 4 3 6 8 9 11
6 0 0 0 0 1 22 18 45 12 12 6 17 6 10 10 15 8 10 11 15 14 7 22 22 22 3 0 0 0 0 0 0 0 0 0 0 4 4 5 4 6 3 5 8 6 4 4 6 7 3 4 4 3 3 2 5 3 4 1 1 0 0 0 0 3 3 1 0 0 1 1 2 3 2 2 2 2 3 5 3 4 8 12 13
15 0 0 0 0 22 21 20 8 13 19 5 19 19 2 12 15 21 9 15 16 20 13 14 2 8 0 1 0 0 0 0 1 0 0 0 3 6 0 8 4 6 1 4 1 8 4 1 1 1 1 1 1 1 4 4 4 1 1 1 1 1 1 0 0 0 0 0 0 0 0 2 2 2 4 3 3 2 1 4 4 4 7 11 12
20 0 0 0 1 11 0 8 9 3 6 7 1 15 0 6 13 15 11 11 4 6 19 6 3 7 3 0 0 0 0 3 9 10 8 14 11 6 4 2 3 1 1 1 5 6 1 2 1 1 4 1 1 1 6 2 1 2 7 2 0 0 0 0 0 0 0 0 0 0 0 0 2 4 3 4 4 4 1 0 1 5 6 7 8
0 3 3 0 0 0 0 4 8 1 3 1 0 11 1 7 8 15 3 8 9 15 10 13 20 14 7 0 0 0 0 5 2 2 6 1 9 10 8 1 8 11 0 10 7 6 1 2 2 2 1 2 2 2 1 2 2 5 2 4 1 1 0 0 0 0 0 0 0 0 0 0 2 2 2 3 3 4 7 7 1 1 4 5 3
0 0 0 0 0 5 4 1 5 13 11 7 0 8 5 4 8 13 0 1 5 4 2 2 6 22 6 0 0 0 21 3 0 4 13 17 9 16 7 4 0 5 8 2 15 11 1 2 2 3 3 2 1 3 1 6 0 0 4 4 2 1 0 0 0 0 0 0 0 0 1 1 1 1 1 1 7 4 2 4 6 5 6 4 2
0 0 0 0 3 0 0 2 5 12 11 5 1 0 3 1 2 17 0 3 1 0 0 1 2 13 8 0 0 0 10 6 2 2 5 1 1 2 2 3 6 6 7 0 1 3 3 13 2 2 2 2 3 2 1 0 1 1 3 1 2 0 0 0 0 1 2 2 2 1 0 1 3 3 2 5 1 1 1 4 4 3 4 7 11
2 5 12 1 0 0 0 0 5 0 1 2 6 1 0 0 10 0 0 2 0 2 4 4 7 14 15 0 0 1 3 5 6 5 2 0 1 3 2 6 2 7 12 12 12 8 1 1 2 3 4 3 2 2 1 1 1 1 3 4 1 0 0 0 1 1 2 3 3 3 1 0 1 0 1 1 0 0 1 4 5 4 2 4 6
2 4 5 4 2 2 11 1 0 7 4 9 9 8 4 7 3 4 2 2 2 2 1 1 3 6 4 0 4 7 6 8 7 4 11 10 9 10 5 3 1 0 2 3 3 2 0 1 0 2 4 5 6 4 3 2 2 5 0 6 2 0 0 1 1 2 2 2 3 3 1 2 2 0 0 1 2 3 5 4 6 6 2 1 0
3 0 2 0 1 6 2 20 1 6 20 9 7 9 8 7 2 1 1 2 3 2 0 3 2 4 2 6 5 1 6 0 0 7 5 4 6 2 1 6 6 8 8 3 3 4 1 2 1 6 9 7 10 11 1 1 16 6 5 0 0 1 2 2 2 2 2 2 2 2 2 2 0 0 0 0 1 1 0 0 2 14 10 0 0
0 2 4 2 4 6 12 8 11 11 6 5 5 8 3 1 2 1 2 4 5 0 0 0 3 3 4 3 4 4 7 2 0 3 6 4 5 6 2 2 6 5 0 6 4 5 9 11 11 3 2 2 2 1 1 1 2 8 0 0 0 0 1 1 2 2 1 1 1 2 3 2 0 0 0 0 0 0 0 0 0 8 2 0 0
5 5 4 5 5 13 19 21 26 28 2 0 13 17 7 2 3 9 10 6 5 4 1 1 1 2 4 8 0 1 3 6 6 8 3 5 7 0 0 2 2 1 4 4 5 4 6 9 10 2 3 5 5 3 4 2 1 0 0 0 0 0 0 0 0 0 0 0 1 1 1 1 0 0 0 0 0 0 0 0 9 2 0 0 0
5 7 10 7 8 4 2 2 14 15 27 28 23 20 14 10 6 6 8 9 11 0 1 2 4 4 8 4 1 2 2 4 5 1 1 4 3 1 7 12 0 5 6 4 10 4 1 5 11 5 7 5 7 7 6 5 10 0 0 0 0 0 0 0 0 0 1 1 1 1 0 0 0 0 0 0 0 0 10 9 1 0 0 0 1
1 6 6 10 8 0 1 11 2 21 20 15 6 10 6 0 0 0 0 1 1 0 2 2 4 4 6 13 9 2 1 4 2 0 1 1 4 6 2 2 1 2 3 4 5 5 4 2 3 1 4 6 8 6 4 2 0 0 0 0 0 0 0 0 0 0 0 0 1 0 0 0 0 0 0 0 5 7 0 3 5 1 0 5 8
5 12 8 2 6 3 18 19 12 11 8 7 3 3 9 9 1 8 5 2 0 0 0 0 0 4 5 4 1 4 7 4 1 1 0 0 0 1 4 8 1 1 4 2 3 2 2 2 2 4 4 4 3 2 3 0 0 0 0 0 0 0 0 0 0 0 0 0 0 0 0 0 0 0 0 8 17 10 7 4 4 3 2 4 12
24 2 9 8 14 0 0 4 13 14 29 16 2 5 13 12 1 8 9 10 0 0 0 1 2 6 7 4 5 6 7 2 3 1 2 2 4 4 4 1 2 4 20 18 10 5 3 5 5 6 5 4 2 5 0 0 0 0 0 0 0 0 0 0 0 0 0 0 0 0 0 0 0 0 16 13 9 13 17 12 6 4 0 1 10
Wind_Speed
25 22 21 21 21 25 24 24 24 25 24 24 24 24 25 25 24 24 24 24 23 23 23 25 25 26 24 24 24 22 21 21 21 20 20 20 19 16 15 16 16 16 19 19 21 18 17 17 16 17 19 20 25 27 26 25 27 28 30 33 31 33 34 32 27 24 26 27 26 27 29 30 31 32 31 30 28 24 19 17 21 22 24 23 20
26 24 23 22 23 26 26 26 28 27 27 28 28 27 27 29 27 25 26 26 26 26 25 26 26 26 26 27 26 25 24 24 23 23 21 20 19 19 18 17 17 18 21 19 21 18 15 18 19 22 20 17 18 23 26 26 27 28 30 30 30 32 33 33 28 26 27 30 29 30 30 35 32 30 30 34 30 28 24 23 23 24 23 24 25
27 27 25 24 26 28 28 30 29 29 30 31 31 31 30 30 31 30 28 29 28 29 28 27 27 27 28 28 28 28 29 27 26 24 23 22 21 21 20 20 19 18 17 20 26 21 17 17 22 23 19 14 15 20 23 26 28 28 28 30 30 31 32 33 32 30 31 33 33 33 35 37 35 33 37 40 40 38 32 26 26 28 27 25 27
32 29 28 26 29 29 nan 31 31 32 32 33 33 33 34 33 32 32 33 32 30 30 29 29 29 29 29 29 29 30 30 30 29 27 25 24 23 22 23 22 20 20 22 21 22 26 23 20 21 22 21 21 20 19 21 25 27 28 27 28 30 30 34 37 40 37 37 36 35 34 37 38 37 38 40 39 37 35 29 27 24 31 32 30 29
35 33 31 31 32 33 32 33 33 34 33 34 34 34 34 34 34 34 35 33 33 32 31 31 30 30 30 30 31 31 32 32 32 30 28 26 24 25 26 25 24 25 23 23 24 26 28 25 22 22 21 20 21 21 21 22 24 27 28 31 31 34 38 41 43 40 37 37 36 38 42 39 40 41 40 37 34 34 29 27 29 31 32 32 31
37 34 nan 35 36 35 35 35 36 35 35 35 36 36 36 36 36 36 36 35 35 34 33 33 32 31 31 32 32 33 34 33 32 31 30 29 29 29 28 28 28 26 25 25 26 27 29 28 26 24 21 21 23 24 24 22 24 26 29 31 31 32 34 36 40 39 36 35 35 34 34 39 37 36 41 38 36 37 36 35 35 38 41 37 33
38 37 nan nan 37 37 37 37 37 38 37 37 38 38 37 37 37 37 38 37 36 36 35 34 34 32 32 32 32 33 33 33 32 33 36 37 35 31 32 31 30 29 28 27 27 27 29 29 28 27 24 25 26 26 26 25 26 26 28 29 29 27 29 34 38 35 33 34 34 33 37 42 36 34 40 41 39 34 33 36 37 39 38 33 31
37 37 38 38 39 38 40 39 39 40 40 40 40 39 39 38 38 38 39 38 38 36 36 34 34 35 34 34 33 34 34 33 36 39 37 36 37 35 34 33 33 32 30 29 29 29 28 28 28 28 27 27 28 28 27 25 26 27 30 31 29 26 25 30 35 35 32 32 32 33 37 41 41 41 42 43 39 35 34 35 34 37 37 35 31
38 38 39 40 41 41 41 40 41 41 41 42 41 40 40 39 39 39 38 38 38 37 37 35 34 33 34 34 34 34 35 35 41 38 36 36 37 35 35 35 35 34 33 32 31 29 29 28 29 31 29 24 24 27 25 24 28 28 30 32 31 30 27 26 28 31 33 32 30 32 37 42 43 42 42 40 37 35 42 39 38 41 41 39 37
40 41 41 42 42 41 42 42 42 42 41 41 41 41 40 40 38 38 37 37 37 37 37 36 34 34 34 34 35 35 35 36 38 38 39 38 35 36 35 35 35 34 34 33 33 32 31 31 30 26 24 23 23 25 26 25 24 27 30 32 32 32 30 27 25 26 29 30 30 31 35 39 42 41 40 40 40 43 44 43 41 44 46 41 40
41 41 42 43 43 43 43 43 42 42 41 40 41 40 39 39 39 37 37 37 37 37 37 36 36 35 34 34 34 35 36 40 40 39 38 39 37 35 34 33 nan nan nan nan nan nan nan 34 34 31 30 29 29 26 26 25 22 22 23 25 28 31 31 28 26 26 26 27 29 31 32 34 38 42 42 43 43 43 42 44 45 47 43 42 38
41 42 43 43 43 43 43 42 42 41 41 41 40 40 40 40 39 39 38 38 38 38 38 38 37 37 36 36 36 37 39 49 nan nan 42 nan nan 37 nan nan nan nan nan nan nan nan 35 36 35 35 34 33 35 36 31 22 22 22 22 23 24 22 21 26 27 28 27 25 26 27 28 30 34 39 42 43 45 44 45 47 46 45 44 42 40
43 44 44 44 44 nan nan nan 43 43 43 43 43 43 43 43 42 41 40 40 39 39 39 39 39 39 39 40 41 40 43 nan nan nan nan nan nan 39 nan nan nan nan nan nan 36 36 37 37 37 37 36 33 37 40 39 36 31 28 22 21 23 24 24 20 20 24 29 26 25 25 26 29 29 33 37 38 46 49 52 50 48 46 46 43 39
46 46 nan nan nan nan nan nan nan 45 46 46 46 45 45 45 44 44 43 42 42 41 41 40 40 41 42 43 43 43 48 nan nan nan nan nan nan nan 37 37 36 36 36 37 37 37 38 38 39 38 39 42 41 40 39 36 37 37 33 30 29 27 24 23 21 20 23 27 25 24 26 29 27 28 32 42 47 48 47 44 46 46 46 45 46
nan nan nan nan nan nan nan nan nan nan 45 45 45 46 44 44 44 44 43 42 42 41 41 41 42 43 43 44 44 49 nan nan nan nan nan nan nan 40 43 nan 42 41 41 42 42 42 42 42 40 40 41 42 43 41 39 37 40 39 36 33 31 30 32 31 30 30 31 30 27 23 23 25 25 25 28 38 38 39 41 41 38 42 48 51 49
nan nan nan nan nan nan nan nan nan nan nan 40 40 41 41 41 41 41 nan 40 nan 39 40 41 43 44 nan nan nan nan nan nan nan nan nan nan nan nan nan nan nan nan nan nan nan nan 44 44 43 42 43 44 46 49 46 42 39 38 39 37 35 34 34 33 37 41 35 30 27 26 26 25 24 23 25 30 37 37 35 39 40 40 42 44 43
nan nan nan nan nan nan nan nan nan nan nan 34 nan nan 35 35 35 37 35 nan nan 36 37 38 41 41 43 43 nan nan nan nan nan nan nan nan nan nan nan nan nan nan nan nan nan nan nan 44 46 46 47 48 52 52 51 49 42 41 41 39 39 39 38 40 40 35 27 21 23 25 25 24 22 22 23 28 31 34 32 30 29 33 35 35 39
nan nan nan nan nan nan nan nan nan nan 29 31 31 31 31 32 32 32 32 31 32 33 33 nan 35 39 41 nan 41 nan nan nan nan nan nan nan nan nan nan nan nan nan nan nan nan nan nan 41 47 52 49 49 56 55 56 53 48 46 45 43 41 42 42 45 41 37 29 26 24 23 21 21 21 23 25 27 32 33 28 26 27 30 29 30 32
nan nan nan nan nan nan nan 31 30 28 27 29 30 28 29 28 29 29 30 29 30 31 nan 32 nan nan 36 nan nan nan nan nan nan nan nan nan nan nan nan nan nan nan nan nan nan nan nan nan nan 49 52 55 57 55 55 53 nan nan 46 46 45 44 48 47 44 42 40 38 36 33 32 29 28 28 28 25 27 30 30 25 27 28 27 24 25
nan nan nan nan nan nan nan 31 29 27 27 27 26 26 27 26 27 28 28 28 nan nan nan nan nan nan nan nan nan nan nan nan nan nan nan nan nan nan nan nan nan nan nan nan nan nan nan nan nan 48 51 55 nan nan nan nan nan nan nan nan 45 44 50 47 44 41 39 39 38 36 34 34 33 32 32 32 32 31 28 25 24 25 24 22 23
nan nan nan nan nan nan nan 28 nan nan 27 27 24 24 25 26 27 28 27 27 nan nan nan nan nan nan nan nan nan nan nan nan nan nan nan nan nan nan nan nan nan nan nan nan nan nan nan nan nan nan nan nan nan nan nan nan nan nan nan nan 44 44 nan nan 42 40 39 39 38 38 37 35 35 34 33 32 32 32 31 26 23 23 23 22 22
nan nan nan nan nan nan nan nan nan nan nan 26 24 nan 24 26 nan nan 26 nan nan nan nan nan nan nan nan nan nan nan nan nan nan nan nan nan nan nan nan nan nan nan nan nan nan nan nan nan nan nan nan nan nan nan nan nan nan nan nan nan nan nan nan nan 42 42 40 40 40 40 40 39 37 36 34 33 33 32 32 29 26 25 25 22 22
nan nan nan nan nan nan nan nan nan nan nan nan nan nan nan nan nan nan nan nan nan nan nan nan nan nan nan nan nan nan nan nan nan nan nan nan nan nan nan nan nan nan nan nan nan nan nan nan nan nan nan nan nan nan nan nan nan nan nan nan nan nan nan nan nan 43 41 39 39 40 40 41 40 39 37 35 35 35 33 31 32 31 28 26 28
nan nan nan nan nan nan nan nan nan nan nan nan nan nan nan nan nan nan nan nan nan nan nan nan nan nan nan nan nan nan nan nan nan nan nan nan nan nan nan nan nan nan nan nan nan nan nan nan nan nan nan nan nan nan nan nan nan nan nan nan nan nan nan 45 44 43 40 38 38 38 40 41 41 41 40 40 38 39 39 36 39 38 36 35 36
nan nan nan nan nan nan nan nan nan nan nan nan nan nan nan nan nan nan nan nan nan nan nan nan nan nan nan nan nan nan nan nan nan nan nan nan nan nan nan nan nan nan nan nan nan nan nan nan nan nan nan nan nan nan 41 51 nan nan 54 nan 44 nan 46 46 45 44 42 40 38 38 41 43 44 45 47 45 44 48 43 43 43 38 33 35 39
nan nan nan nan nan nan nan nan nan nan nan nan nan nan nan nan nan nan nan nan nan nan nan nan nan nan nan nan nan nan nan nan nan nan nan nan nan nan nan nan nan nan nan nan nan nan nan nan nan nan nan nan nan nan nan nan nan nan nan nan nan 57 54 51 49 47 47 45 43 42 41 42 43 43 43 45 47 44 46 44 44 45 43 42 39
nan nan nan nan nan nan nan nan nan nan nan nan nan nan nan nan nan nan nan nan nan nan nan nan nan nan nan nan nan nan nan nan nan nan nan nan nan nan nan nan nan nan nan nan nan nan nan nan nan nan nan nan nan nan nan nan nan 53 54 nan nan nan nan nan nan nan nan nan 45 44 42 41 42 43 44 44 43 44 46 47 46 46 43 42 40
nan nan nan nan nan nan nan nan nan nan nan nan nan nan nan nan nan nan nan nan nan nan nan nan nan nan nan nan nan nan nan nan nan nan nan nan nan nan nan nan nan nan nan nan nan nan nan nan nan nan nan nan nan nan 44 nan nan nan 51 50 52 54 56 58 nan nan nan nan nan 46 45 45 45 46 45 43 43 43 44 44 44 44 44 45 43
nan nan nan nan nan nan nan nan nan nan nan nan nan nan nan nan nan nan nan nan nan nan nan nan nan nan nan nan nan nan nan nan nan nan nan nan nan nan nan nan nan nan nan nan nan nan nan nan nan nan nan nan nan nan nan nan nan nan 49 50 49 50 51 nan 49 46 nan nan 46 46 nan nan 48 49 48 46 45 44 44 44 44 43 42 44 42
nan nan nan nan nan nan nan nan nan nan nan nan nan nan nan nan 23 nan nan nan nan nan nan nan nan nan nan nan nan nan nan nan nan nan nan nan nan nan nan nan nan nan nan nan nan nan nan nan nan nan nan nan nan nan nan nan nan nan nan nan nan nan nan nan 48 45 nan nan nan nan nan nan nan nan nan 49 48 47 45 45 44 44 43 43 43
nan nan nan nan nan nan nan nan nan nan nan nan nan nan nan nan nan nan nan nan nan nan nan nan nan nan nan nan nan nan nan nan nan nan nan nan nan nan nan nan nan nan nan nan nan nan nan nan nan nan nan nan nan nan nan nan nan nan nan nan nan nan nan nan nan nan nan nan nan nan nan nan nan nan nan nan nan nan nan 45 45 44 43 43 43
nan nan nan nan nan nan nan nan nan nan nan nan nan nan nan nan nan nan nan nan nan nan nan nan nan nan nan nan nan nan nan nan nan nan nan nan nan nan nan nan nan nan nan nan nan nan nan nan nan nan nan nan nan nan nan nan nan nan nan nan nan nan nan nan nan nan nan nan nan nan nan nan nan nan nan nan nan nan nan nan 44 44 44 44 43
nan nan nan nan nan nan nan nan nan nan nan nan nan nan nan nan nan nan nan nan nan nan nan nan nan nan nan nan nan nan nan nan nan nan nan nan nan nan nan nan nan nan nan nan nan nan nan nan nan nan nan nan nan nan nan nan nan nan nan nan nan nan nan nan nan nan nan nan nan nan nan nan nan nan nan nan nan nan nan nan nan nan 43 43 43
nan nan nan nan nan nan nan nan nan nan nan nan nan nan nan nan nan nan nan nan nan nan nan nan nan nan nan nan nan nan nan nan nan nan nan nan nan nan nan nan nan nan nan nan nan nan nan nan nan nan nan nan nan nan nan nan nan nan nan nan nan nan nan nan nan nan nan nan nan nan nan nan nan nan nan nan nan nan nan nan nan nan nan nan 44
nan nan nan nan nan nan nan nan nan nan nan nan nan nan nan nan nan nan nan nan nan nan nan nan nan nan nan nan nan nan nan nan nan nan nan nan nan nan nan nan nan nan nan nan nan nan nan nan nan nan nan nan nan nan nan nan nan nan nan nan nan nan nan nan nan nan nan nan nan nan nan nan nan nan nan nan nan nan nan nan nan nan nan nan nan
nan nan nan nan nan nan nan nan nan nan nan nan nan nan nan nan nan nan nan nan nan nan nan nan nan nan nan nan nan nan nan nan nan nan nan nan nan nan nan nan nan nan nan nan nan nan nan nan nan nan nan nan nan nan nan nan nan nan nan nan nan nan nan nan nan nan nan nan nan nan nan nan nan nan nan nan nan nan nan nan nan nan nan nan nan
nan nan nan nan nan nan nan nan nan nan nan nan nan nan nan nan nan nan nan nan nan nan nan nan nan nan nan nan nan nan nan nan nan nan nan nan nan nan nan nan nan nan nan nan nan nan nan nan nan nan nan nan nan nan nan nan nan nan nan nan nan nan nan nan nan nan nan nan nan nan nan nan nan nan nan nan nan nan nan nan nan nan nan nan nan
nan nan nan nan nan nan nan nan nan nan nan nan nan nan nan nan nan nan nan nan nan nan nan nan nan nan nan nan nan nan nan nan nan nan nan nan nan nan nan nan nan nan nan nan nan nan nan nan nan nan nan nan nan nan nan nan nan nan nan nan nan nan nan nan nan nan nan nan nan nan nan nan nan nan nan nan nan nan nan nan nan nan nan nan nan
nan nan nan nan nan nan nan nan nan nan nan nan nan nan nan nan nan nan nan nan nan nan nan nan nan nan nan nan nan nan nan nan nan nan nan nan nan nan nan nan nan nan nan nan nan nan nan nan nan nan nan nan nan nan nan nan nan nan nan nan nan nan nan nan nan nan nan nan nan nan nan nan nan nan nan nan nan nan nan nan nan nan nan nan nan
nan nan nan nan nan nan nan nan nan nan nan nan nan nan nan nan nan nan nan nan nan nan nan nan nan nan nan nan nan nan nan nan nan nan nan nan nan nan nan nan nan nan nan nan nan nan nan nan nan nan nan nan nan nan nan nan nan nan nan nan nan nan nan nan nan nan nan nan nan nan nan nan nan nan nan nan nan nan nan nan nan nan nan nan nan
nan nan nan nan nan nan nan nan nan nan nan nan nan nan nan nan nan nan nan nan nan nan nan nan nan nan nan nan nan nan nan nan nan nan nan nan nan nan nan nan nan nan nan nan nan nan nan nan nan nan nan nan nan nan nan nan nan nan nan nan nan nan nan nan nan nan nan nan nan nan nan nan nan nan nan nan nan nan nan nan nan nan nan nan nan
nan nan nan nan nan nan nan nan nan nan nan nan nan nan nan nan nan nan nan nan nan nan nan nan nan nan nan nan nan nan nan nan nan nan nan nan nan nan nan nan nan nan nan nan nan nan nan nan nan nan nan nan nan nan nan nan nan nan nan nan nan nan nan nan nan nan nan nan nan nan nan nan nan nan nan nan nan nan nan nan nan nan nan nan nan
nan nan nan nan nan nan nan nan nan nan nan nan nan nan nan nan nan nan nan nan nan nan nan nan nan nan nan nan nan nan nan nan nan nan nan nan nan nan nan nan nan nan nan nan nan nan nan nan nan nan nan nan nan nan nan nan nan nan nan nan nan nan nan nan nan nan nan nan nan nan nan nan nan nan nan nan nan nan nan nan nan nan nan nan nan
nan nan nan nan nan nan nan nan nan nan nan nan nan nan nan nan nan nan nan nan nan nan nan nan nan nan nan nan nan nan nan nan nan nan nan nan nan nan nan nan nan nan nan nan nan nan nan nan nan nan nan nan nan nan nan nan nan nan nan nan nan nan nan nan nan nan nan nan nan nan nan nan nan nan nan nan nan nan nan nan nan nan nan nan nan
nan nan nan nan nan nan nan nan nan nan nan nan nan nan nan nan nan nan nan nan nan nan nan nan nan nan nan nan nan nan nan nan nan nan nan nan nan nan nan nan nan nan nan nan nan nan nan nan nan nan nan nan nan nan nan nan nan nan nan nan nan nan nan nan nan nan nan nan nan nan nan nan nan nan nan nan nan nan nan nan nan nan nan nan nan
nan nan nan nan nan nan nan nan nan nan nan nan nan nan nan nan nan nan nan nan nan nan nan nan nan nan nan nan nan nan nan nan nan nan nan nan nan nan nan nan nan nan nan nan nan nan nan nan nan nan nan nan nan nan nan nan nan nan nan nan nan nan nan nan nan nan nan nan nan nan nan nan nan nan nan nan nan nan nan nan nan nan nan nan nan
nan nan nan nan nan nan nan nan nan nan nan nan nan nan nan nan nan nan nan nan nan nan nan nan nan nan nan nan nan nan nan nan nan nan nan nan nan nan nan nan nan nan nan nan nan nan nan nan nan nan nan nan nan nan nan nan nan nan nan nan nan nan nan nan nan nan nan nan nan nan nan nan nan nan nan nan nan nan nan nan nan nan nan nan nan
nan nan nan nan nan nan nan nan nan nan nan nan nan nan nan nan nan nan nan nan nan nan nan nan nan nan nan nan nan nan nan nan nan nan nan nan nan nan nan nan nan nan nan nan nan nan nan nan nan nan nan nan nan nan nan nan nan nan nan nan nan nan nan nan nan nan nan nan nan nan nan nan nan nan nan nan nan nan nan nan nan nan nan nan nan
nan nan nan nan nan nan nan nan nan nan nan nan nan nan nan nan nan nan nan nan nan nan nan nan nan nan nan nan nan nan nan nan nan nan nan nan nan nan nan nan nan nan nan nan nan nan nan nan nan nan nan nan nan nan nan nan nan nan nan nan nan nan nan nan nan nan nan nan nan nan nan nan nan nan nan nan nan nan nan nan nan nan nan nan nan
nan nan nan nan nan nan nan nan nan nan nan nan nan nan nan nan nan nan nan nan nan nan nan nan nan nan nan nan nan nan nan nan nan nan nan nan nan nan nan nan nan nan nan nan nan nan nan nan nan nan nan nan nan nan nan nan nan nan nan nan nan nan nan nan nan nan nan nan nan nan nan nan nan nan nan nan nan nan nan nan nan nan nan nan nan
nan nan nan nan nan nan nan nan nan nan nan nan nan nan nan nan nan nan nan nan nan nan nan nan nan nan nan nan nan nan nan nan nan nan nan nan nan nan nan nan nan nan nan nan nan nan nan nan nan nan nan nan nan nan nan nan nan nan nan nan nan nan nan nan nan nan nan nan nan nan nan nan nan nan nan nan nan nan nan nan nan nan nan nan nan
Wind_Direction
295 294 290 287 286 282 281 285 284 288 289 287 289 289 289 287 286 287 290 288 284 287 287 286 285 283 282 282 280 279 279 276 275 276 281 288 291 288 273 271 271 272 268 260 260 258 258 255 254 252 241 241 245 245 245 241 240 239 239 235 231 239 241 238 234 225 222 234 234 229 229 218 216 224 230 239 240 236 241 244 245 247 245 243 246
298 296 295 292 290 284 283 286 285 288 289 291 290 287 289 289 286 286 283 287 288 284 282 281 282 283 282 282 282 282 281 276 272 273 272 273 274 274 269 268 270 271 275 271 261 263 262 259 255 255 248 236 235 243 243 243 240 241 246 248 238 234 240 236 232 231 222 226 223 228 234 241 231 217 223 229 232 231 227 231 248 254 250 244 246
293 295 295 295 290 288 288 287 285 287 288 291 291 290 287 287 289 286 284 283 283 282 281 281 282 282 282 282 283 282 278 275 273 271 269 268 270 271 268 267 267 268 270 276 281 273 265 267 271 266 264 270 258 246 243 244 241 238 241 246 240 233 231 237 236 235 230 225 226 223 223 232 235 235 229 232 227 219 216 225 236 249 247 247 244
293 292 292 289 285 284 nan 286 287 288 288 290 289 288 288 288 287 287 286 285 282 281 280 280 280 280 279 279 278 278 278 277 274 272 267 264 263 264 267 267 267 263 262 267 270 280 278 262 253 259 262 265 263 256 250 246 245 243 241 244 241 236 234 228 237 235 229 220 226 226 231 228 231 234 236 232 237 234 223 221 228 241 241 244 245
293 294 295 292 289 288 287 288 288 286 286 288 286 285 285 285 286 282 283 282 283 283 282 280 279 277 275 273 273 273 271 270 271 270 269 265 262 259 258 261 262 262 260 258 259 269 272 270 265 265 267 264 259 258 256 251 247 246 243 241 235 233 235 237 237 241 234 225 220 227 226 226 231 234 231 234 231 238 240 230 222 232 238 240 238
294 295 nan 295 295 292 291 290 288 287 287 286 285 285 285 285 284 283 283 282 281 282 282 280 277 274 271 269 268 268 269 268 268 269 270 268 263 258 258 257 255 256 259 256 257 263 274 274 276 275 273 268 260 255 250 247 250 254 251 245 241 238 239 239 242 245 244 232 228 229 240 240 228 232 240 233 226 228 233 235 234 233 232 230 234
296 297 nan nan 295 294 293 291 290 289 288 287 287 286 285 284 284 284 284 283 282 281 279 278 277 273 272 269 267 267 267 267 268 266 264 265 265 264 260 257 255 254 254 252 254 257 270 276 275 274 274 273 267 259 255 254 256 257 257 258 253 251 251 251 248 246 247 244 239 239 240 247 248 242 243 244 236 230 234 235 234 240 245 246 233
294 294 294 293 293 290 290 290 291 290 289 289 287 286 285 285 285 285 285 283 282 280 279 276 276 276 273 271 269 268 267 266 266 264 262 261 262 261 259 258 256 255 254 253 252 252 254 261 269 273 273 272 271 267 261 258 262 260 262 263 261 259 259 256 253 254 252 248 243 235 237 244 248 242 242 247 247 243 244 245 243 243 241 238 240
294 293 292 291 289 288 289 289 289 288 288 288 287 286 285 284 284 284 283 283 283 281 280 277 274 273 272 272 269 267 266 265 267 264 264 260 260 259 257 256 255 255 254 252 253 253 255 256 260 269 272 270 275 275 273 267 262 261 265 267 265 264 265 263 258 254 256 257 252 246 241 241 243 245 245 246 249 247 246 246 241 241 240 236 235
293 292 291 289 289 288 288 288 287 286 286 286 286 285 284 283 282 282 281 281 280 279 279 277 276 273 271 269 269 268 266 265 259 260 262 263 261 258 256 256 256 255 254 254 254 254 254 255 255 247 250 256 266 277 277 275 271 264 263 266 267 266 265 267 266 261 261 262 260 257 251 242 240 243 242 243 245 246 247 249 245 242 238 236 234
290 289 288 288 287 286 286 285 284 284 283 283 283 282 281 281 281 280 279 278 278 279 278 277 275 272 270 268 265 267 265 262 253 261 261 255 258 259 255 254 nan nan nan nan nan nan nan 253 254 249 250 257 261 265 266 266 272 273 270 266 267 266 262 264 265 265 264 264 261 261 256 244 239 240 242 242 245 247 246 248 246 244 245 244 242
289 288 286 285 285 283 283 282 282 282 281 280 279 279 279 278 279 278 278 277 277 277 277 276 275 273 272 271 267 266 265 259 nan nan 250 nan nan 255 nan nan nan nan nan nan nan nan 251 251 251 253 253 252 258 257 260 270 271 273 273 269 267 267 265 260 258 257 260 260 261 263 260 251 243 243 244 246 250 250 249 249 248 247 247 245 244
290 288 286 286 284 nan nan nan 282 281 280 279 279 279 278 277 276 276 275 275 275 275 274 273 273 272 271 268 265 263 267 nan nan nan nan nan nan 253 nan nan nan nan nan nan 253 252 252 250 248 249 249 237 247 256 254 250 244 238 246 259 258 262 267 265 258 255 252 252 256 259 261 255 249 250 250 247 245 246 243 244 247 248 248 246 246
291 290 nan nan nan nan nan nan nan 281 280 278 277 276 275 275 274 274 274 273 272 271 270 269 269 269 267 268 268 266 265 nan nan nan nan nan nan nan 264 261 258 255 251 250 251 253 253 250 250 249 247 246 248 250 253 251 253 254 247 246 248 249 253 266 267 264 260 256 254 253 255 258 256 255 252 250 249 255 256 252 247 246 247 245 240
nan nan nan nan nan nan nan nan nan nan 279 278 277 276 275 274 273 273 273 272 271 270 270 268 266 265 263 263 265 265 nan nan nan nan nan nan nan 256 261 nan 259 257 254 251 248 247 248 250 248 248 248 248 252 246 249 251 254 256 256 256 255 251 250 251 256 259 261 256 252 255 256 259 258 257 257 261 261 259 263 265 260 253 247 240 236
nan nan nan nan nan nan nan nan nan nan nan 279 278 277 276 275 274 273 nan 272 nan 272 271 271 268 267 nan nan nan nan nan nan nan nan nan nan nan nan nan nan nan nan nan nan nan nan 249 251 254 251 248 250 245 242 243 246 249 251 252 252 252 252 250 249 254 251 247 254 262 262 262 264 264 260 260 262 261 264 264 262 259 258 255 249 243
nan nan nan nan nan nan nan nan nan nan nan 283 nan nan 277 276 276 277 276 nan nan 271 271 271 271 270 269 270 nan nan nan nan nan nan nan nan nan nan nan nan nan nan nan nan nan nan nan 249 249 251 249 250 246 244 242 238 245 246 248 247 248 248 249 247 248 253 253 252 248 240 232 235 245 251 254 260 264 266 267 268 269 266 263 258 251
nan nan nan nan nan nan nan nan nan nan 288 286 284 283 282 282 281 280 277 276 275 274 273 nan 269 270 268 nan 268 nan nan nan nan nan nan nan nan nan nan nan nan nan nan nan nan nan nan 239 242 254 252 250 246 244 242 242 243 241 243 244 241 245 245 250 255 252 250 249 248 246 242 243 245 245 248 255 265 268 265 273 276 272 267 263 256
nan nan nan nan nan nan nan 292 290 289 289 288 287 286 284 283 282 281 280 280 276 274 nan 273 nan nan 269 nan nan nan nan nan nan nan nan nan nan nan nan nan nan nan nan nan nan nan nan nan nan 255 256 254 247 244 242 242 nan nan 241 240 241 241 244 243 242 242 244 242 243 245 245 247 253 256 256 261 267 274 272 271 271 274 272 270 267
nan nan nan nan nan nan nan 292 288 287 288 289 289 288 286 285 281 281 280 278 nan nan nan nan nan nan nan nan nan nan nan nan nan nan nan nan nan nan nan nan nan nan nan nan nan nan nan nan nan 261 257 248 nan nan nan nan nan nan nan nan 241 240 245 241 240 240 239 237 240 244 243 241 242 248 251 253 257 264 269 268 268 270 271 271 271
nan nan nan nan nan nan nan 297 nan nan 287 286 287 284 283 282 281 279 280 279 nan nan nan nan nan nan nan nan nan nan nan nan nan nan nan nan nan nan nan nan nan nan nan nan nan nan nan nan nan nan nan nan nan nan nan nan nan nan nan nan 245 239 nan nan 239 234 239 238 238 241 243 243 244 246 248 251 255 259 264 268 269 270 269 267 267
nan nan nan nan nan nan nan nan nan nan nan 285 285 nan 282 279 nan nan 282 nan nan nan nan nan nan nan nan nan nan nan nan nan nan nan nan nan nan nan nan nan nan nan nan nan nan nan nan nan nan nan nan nan nan nan nan nan nan nan nan nan nan nan nan nan 245 244 243 240 239 239 241 242 242 243 245 249 253 256 260 264 269 270 267 262 262
nan nan nan nan nan nan nan nan nan nan nan nan nan nan nan nan nan nan nan nan nan nan nan nan nan nan nan nan nan nan nan nan nan nan nan nan nan nan nan nan nan nan nan nan nan nan nan nan nan nan nan nan nan nan nan nan nan nan nan nan nan nan nan nan nan 247 245 242 240 238 239 242 243 242 243 244 250 256 260 262 263 263 261 260 258
nan nan nan nan nan nan nan nan nan nan nan nan nan nan nan nan nan nan nan nan nan nan nan nan nan nan nan nan nan nan nan nan nan nan nan nan nan nan nan nan nan nan nan nan nan nan nan nan nan nan nan nan nan nan nan nan nan nan nan nan nan nan nan 246 247 249 248 246 243 241 240 241 241 242 242 244 246 249 255 255 254 255 253 251 252
nan nan nan nan nan nan nan nan nan nan nan nan nan nan nan nan nan nan nan nan nan nan nan nan nan nan nan nan nan nan nan nan nan nan nan nan nan nan nan nan nan nan nan nan nan nan nan nan nan nan nan nan nan nan 247 245 nan nan 232 nan 240 nan 246 247 245 244 244 242 240 238 239 238 238 236 234 234 236 245 245 249 251 250 252 255 258
nan nan nan nan nan nan nan nan nan nan nan nan nan nan nan nan nan nan nan nan nan nan nan nan nan nan nan nan nan nan nan nan nan nan nan nan nan nan nan nan nan nan nan nan nan nan nan nan nan nan nan nan nan nan nan nan nan nan nan nan nan 237 238 238 239 241 241 240 239 236 237 238 238 238 238 240 241 241 241 242 245 247 246 250 252
nan nan nan nan nan nan nan nan nan nan nan nan nan nan nan nan nan nan nan nan nan nan nan nan nan nan nan nan nan nan nan nan nan nan nan nan nan nan nan nan nan nan nan nan nan nan nan nan nan nan nan nan nan nan nan nan nan 241 241 nan nan nan nan nan nan nan nan nan 237 236 235 235 237 238 238 237 237 240 246 243 242 247 250 254 258
nan nan nan nan nan nan nan nan nan nan nan nan nan nan nan nan nan nan nan nan nan nan nan nan nan nan nan nan nan nan nan nan nan nan nan nan nan nan nan nan nan nan nan nan nan nan nan nan nan nan nan nan nan nan 253 nan nan nan 241 241 240 236 234 232 nan nan nan nan nan 234 234 233 233 234 236 236 235 235 240 244 246 245 245 246 249
nan nan nan nan nan nan nan nan nan nan nan nan nan nan nan nan nan nan nan nan nan nan nan nan nan nan nan nan nan nan nan nan nan nan nan nan nan nan nan nan nan nan nan nan nan nan nan nan nan nan nan nan nan nan nan nan nan nan 239 239 238 236 234 nan 234 233 nan nan 234 232 nan nan 232 233 233 235 236 236 237 237 240 241 242 246 248
nan nan nan nan nan nan nan nan nan nan nan nan nan nan nan nan 346 nan nan nan nan nan nan nan nan nan nan nan nan nan nan nan nan nan nan nan nan nan nan nan nan nan nan nan nan nan nan nan nan nan nan nan nan nan nan nan nan nan nan nan nan nan nan nan 231 229 nan nan nan nan nan nan nan nan nan 233 233 234 235 238 240 241 241 242 244
nan nan nan nan nan nan nan nan nan nan nan nan nan nan nan nan nan nan nan nan nan nan nan nan nan nan nan nan nan nan nan nan nan nan nan nan nan nan nan nan nan nan nan nan nan nan nan nan nan nan nan nan nan nan nan nan nan nan nan nan nan nan nan nan nan nan nan nan nan nan nan nan nan nan nan nan nan nan nan 235 237 241 243 243 245
nan nan nan nan nan nan nan nan nan nan nan nan nan nan nan nan nan nan nan nan nan nan nan nan nan nan nan nan nan nan nan nan nan nan nan nan nan nan nan nan nan nan nan nan nan nan nan nan nan nan nan nan nan nan nan nan nan nan nan nan nan nan nan nan nan nan nan nan nan nan nan nan nan nan nan nan nan nan nan nan 235 235 237 241 244
nan nan nan nan nan nan nan nan nan nan nan nan nan nan nan nan nan nan nan nan nan nan nan nan nan nan nan nan nan nan nan nan nan nan nan nan nan nan nan nan nan nan nan nan nan nan nan nan nan nan nan nan nan nan nan nan nan nan nan nan nan nan nan nan nan nan nan nan nan nan nan nan nan nan nan nan nan nan nan nan nan nan 235 238 239
nan nan nan nan nan nan nan nan nan nan nan nan nan nan nan nan nan nan nan nan nan nan nan nan nan nan nan nan nan nan nan nan nan nan nan nan nan nan nan nan nan nan nan nan nan nan nan nan nan nan nan nan nan nan nan nan nan nan nan nan nan nan nan nan nan nan nan nan nan nan nan nan nan nan nan nan nan nan nan nan nan nan nan nan 237
nan nan nan nan nan nan nan nan nan nan nan nan nan nan nan nan nan nan nan nan nan nan nan nan nan nan nan nan nan nan nan nan nan nan nan nan nan nan nan nan nan nan nan nan nan nan nan nan nan nan nan nan nan nan nan nan nan nan nan nan nan nan nan nan nan nan nan nan nan nan nan nan nan nan nan nan nan nan nan nan nan nan nan nan nan
nan nan nan nan nan nan nan nan nan nan nan nan nan nan nan nan nan nan nan nan nan nan nan nan nan nan nan nan nan nan nan nan nan nan nan nan nan nan nan nan nan nan nan nan nan nan nan nan nan nan nan nan nan nan nan nan nan nan nan nan nan nan nan nan nan nan nan nan nan nan nan nan nan nan nan nan nan nan nan nan nan nan nan nan nan
nan nan nan nan nan nan nan nan nan nan nan nan nan nan nan nan nan nan nan nan nan nan nan nan nan nan nan nan nan nan nan nan nan nan nan nan nan nan nan nan nan nan nan nan nan nan nan nan nan nan nan nan nan nan nan nan nan nan nan nan nan nan nan nan nan nan nan nan nan nan nan nan nan nan nan nan nan nan nan nan nan nan nan nan nan
nan nan nan nan nan nan nan nan nan nan nan nan nan nan nan nan nan nan nan nan nan nan nan nan nan nan nan nan nan nan nan nan nan nan nan nan nan nan nan nan nan nan nan nan nan nan nan nan nan nan nan nan nan nan nan nan nan nan nan nan nan nan nan nan nan nan nan nan nan nan nan nan nan nan nan nan nan nan nan nan nan nan nan nan nan
nan nan nan nan nan nan nan nan nan nan nan nan nan nan nan nan nan nan nan nan nan nan nan nan nan nan nan nan nan nan nan nan nan nan nan nan nan nan nan nan nan nan nan nan nan nan nan nan nan nan nan nan nan nan nan nan nan nan nan nan nan nan nan nan nan nan nan nan nan nan nan nan nan nan nan nan nan nan nan nan nan nan nan nan nan
nan nan nan nan nan nan nan nan nan nan nan nan nan nan nan nan nan nan nan nan nan nan nan nan nan nan nan nan nan nan nan nan nan nan nan nan nan nan nan nan nan nan nan nan nan nan nan nan nan nan nan nan nan nan nan nan nan nan nan nan nan nan nan nan nan nan nan nan nan nan nan nan nan nan nan nan nan nan nan nan nan nan nan nan nan
nan nan nan nan nan nan nan nan nan nan nan nan nan nan nan nan nan nan nan nan nan nan nan nan nan nan nan nan nan nan nan nan nan nan nan nan nan nan nan nan nan nan nan nan nan nan nan nan nan nan nan nan nan nan nan nan nan nan nan nan nan nan nan nan nan nan nan nan nan nan nan nan nan nan nan nan nan nan nan nan nan nan nan nan nan
nan nan nan nan nan nan nan nan nan nan nan nan nan nan nan nan nan nan nan nan nan nan nan nan nan nan nan nan nan nan nan nan nan nan nan nan nan nan nan nan nan nan nan nan nan nan nan nan nan nan nan nan nan nan nan nan nan nan nan nan nan nan nan nan nan nan nan nan nan nan nan nan nan nan nan nan nan nan nan nan nan nan nan nan nan
nan nan nan nan nan nan nan nan nan nan nan nan nan nan nan nan nan nan nan nan nan nan nan nan nan nan nan nan nan nan nan nan nan nan nan nan nan nan nan nan nan nan nan nan nan nan nan nan nan nan nan nan nan nan nan nan nan nan nan nan nan nan nan nan nan nan nan nan nan nan nan nan nan nan nan nan nan nan nan nan nan nan nan nan nan
nan nan nan nan nan nan nan nan nan nan nan nan nan nan nan nan nan nan nan nan nan nan nan nan nan nan nan nan nan nan nan nan nan nan nan nan nan nan nan nan nan nan nan nan nan nan nan nan nan nan nan nan nan nan nan nan nan nan nan nan nan nan nan nan nan nan nan nan nan nan nan nan nan nan nan nan nan nan nan nan nan nan nan nan nan
nan nan nan nan nan nan nan nan nan nan nan nan nan nan nan nan nan nan nan nan nan nan nan nan nan nan nan nan nan nan nan nan nan nan nan nan nan nan nan nan nan nan nan nan nan nan nan nan nan nan nan nan nan nan nan nan nan nan nan nan nan nan nan nan nan nan nan nan nan nan nan nan nan nan nan nan nan nan nan nan nan nan nan nan nan
nan nan nan nan nan nan nan nan nan nan nan nan nan nan nan nan nan nan nan nan nan nan nan nan nan nan nan nan nan nan nan nan nan nan nan nan nan nan nan nan nan nan nan nan nan nan nan nan nan nan nan nan nan nan nan nan nan nan nan nan nan nan nan nan nan nan nan nan nan nan nan nan nan nan nan nan nan nan nan nan nan nan nan nan nan
nan nan nan nan nan nan nan nan nan nan nan nan nan nan nan nan nan nan nan nan nan nan nan nan nan nan nan nan nan nan nan nan nan nan nan nan nan nan nan nan nan nan nan nan nan nan nan nan nan nan nan nan nan nan nan nan nan nan nan nan nan nan nan nan nan nan nan nan nan nan nan nan nan nan nan nan nan nan nan nan nan nan nan nan nan
nan nan nan nan nan nan nan nan nan nan nan nan nan nan nan nan nan nan nan nan nan nan nan nan nan nan nan nan nan nan nan nan nan nan nan nan nan nan nan nan nan nan nan nan nan nan nan nan nan nan nan nan nan nan nan nan nan nan nan nan nan nan nan nan nan nan nan nan nan nan nan nan nan nan nan nan nan nan nan nan nan nan nan nan nan
nan nan nan nan nan nan nan nan nan nan nan nan nan nan nan nan nan nan nan nan nan nan nan nan nan nan nan nan nan nan nan nan nan nan nan nan nan nan nan nan nan nan nan nan nan nan nan nan nan nan nan nan nan nan nan nan nan nan nan nan nan nan nan nan nan nan nan nan nan nan nan nan nan nan nan nan nan nan nan nan nan nan nan nan nan
nan nan nan nan nan nan nan nan nan nan nan nan nan nan nan nan nan nan nan nan nan nan nan nan nan nan nan nan nan nan nan nan nan nan nan nan nan nan nan nan nan nan nan nan nan nan nan nan nan nan nan nan nan nan nan nan nan nan nan nan nan nan nan nan nan nan nan nan nan nan nan nan nan nan nan nan nan nan nan nan nan nan nan nan nan
nan nan nan nan nan nan nan nan nan nan nan nan nan nan nan nan nan nan nan nan nan nan nan nan nan nan nan nan nan nan nan nan nan nan nan nan nan nan nan nan nan nan nan nan nan nan nan nan nan nan nan nan nan nan nan nan nan nan nan nan nan nan nan nan nan nan nan nan nan nan nan nan nan nan nan nan nan nan nan nan nan nan nan nan nan